Volver al catálogo

STARLINK-32434

ActivoComunicacionesVLEO
NORAD 61913·PAYLOAD·🇺🇸 United States

Lanzado Nov 11, 2024 desde Cape Canaveral Space Force Station

Loading…

Próximos Pases (próximas 24 horas)

TLE

ActualizadoSource: CelesTrak SupGP

Época: Sep 15, 2026, 01:59 UTC

1 61913C 24207B   26258.08312500  .00032704  00000+0  11846-2 0  2582
2 61913  43.0025 292.4625 0001346 266.6059  97.3823 15.27561926    11

Sigue STARLINK-32434 en tiempo real con AllMySat

Download on the App Store